Year,Month,Day,Hour,Minute,Value (Times are PST for temperature in C)
2009,09,24,00,00,14.20
2009,09,24,00,01,14.20
2009,09,24,00,02,14.20
2009,09,24,00,03,14.20
2009,09,24,00,04,14.20
2009,09,24,00,05,14.20
2009,09,24,00,06,14.10
2009,09,24,00,07,14.10
2009,09,24,00,08,14.10
2009,09,24,00,09,14.00
2009,09,24,00,10,14.00
2009,09,24,00,11,14.00
2009,09,24,00,12,13.90
2009,09,24,00,16,13.80
2009,09,24,00,17,13.70
2009,09,24,00,18,13.70
2009,09,24,00,19,13.70
2009,09,24,00,20,13.70
2009,09,24,00,21,13.60
2009,09,24,00,22,13.60
2009,09,24,00,23,13.60
2009,09,24,00,24,13.60
2009,09,24,00,25,13.50
2009,09,24,00,26,13.50
2009,09,24,00,27,13.50
2009,09,24,00,28,13.50
2009,09,24,00,29,13.40
2009,09,24,00,30,13.40
2009,09,24,00,31,13.40
2009,09,24,00,32,13.40
2009,09,24,00,33,13.30
2009,09,24,00,34,13.30
2009,09,24,00,35,13.30
2009,09,24,00,36,13.30
2009,09,24,00,37,13.30
2009,09,24,00,38,13.30
2009,09,24,00,39,13.30
2009,09,24,00,40,13.20
2009,09,24,00,41,13.20
2009,09,24,00,42,13.20
2009,09,24,00,43,13.20
2009,09,24,00,44,13.10
2009,09,24,00,45,13.10
2009,09,24,00,46,13.10
2009,09,24,00,47,13.10
2009,09,24,00,48,13.10
2009,09,24,00,49,13.10
2009,09,24,00,50,13.00
2009,09,24,00,51,13.00
2009,09,24,00,52,13.00
2009,09,24,00,53,13.00
2009,09,24,00,54,13.00
2009,09,24,00,55,12.90
2009,09,24,00,56,12.90
2009,09,24,00,57,12.90
2009,09,24,00,58,12.90
2009,09,24,00,59,12.90
2009,09,24,01,00,12.80
2009,09,24,01,01,12.80
2009,09,24,01,02,12.80
2009,09,24,01,03,12.80
2009,09,24,01,04,12.80
2009,09,24,01,05,12.80
2009,09,24,01,06,12.80
2009,09,24,01,07,12.80
2009,09,24,01,08,12.80
2009,09,24,01,09,12.80
2009,09,24,01,10,12.80
2009,09,24,01,11,12.80
2009,09,24,01,12,12.70
2009,09,24,01,13,12.70
2009,09,24,01,14,12.70
2009,09,24,01,15,12.70
2009,09,24,01,16,12.60
2009,09,24,01,17,12.60
2009,09,24,01,18,12.60
2009,09,24,01,19,12.60
2009,09,24,01,20,12.60
2009,09,24,01,21,12.60
2009,09,24,01,22,12.50
2009,09,24,01,23,12.50
2009,09,24,01,24,12.50
2009,09,24,01,25,12.50
2009,09,24,01,26,12.50
2009,09,24,01,27,12.50
2009,09,24,01,28,12.50
2009,09,24,01,29,12.40
2009,09,24,01,30,12.40
2009,09,24,01,31,12.40
2009,09,24,01,32,12.40
2009,09,24,01,33,12.40
2009,09,24,01,34,12.40
2009,09,24,01,35,12.40
2009,09,24,01,36,12.40
2009,09,24,01,37,12.30
2009,09,24,01,38,12.30
2009,09,24,01,39,12.30
2009,09,24,01,40,12.30
2009,09,24,01,41,12.30
2009,09,24,01,42,12.30
2009,09,24,01,43,12.30
2009,09,24,01,44,12.30
2009,09,24,01,45,12.30
2009,09,24,01,46,12.30
2009,09,24,01,47,12.20
2009,09,24,01,48,12.20
2009,09,24,01,49,12.20
2009,09,24,01,50,12.20
2009,09,24,01,51,12.20
2009,09,24,01,52,12.20
2009,09,24,01,53,12.10
2009,09,24,01,54,12.10
2009,09,24,01,55,12.10
2009,09,24,01,56,12.10
2009,09,24,01,57,12.10
2009,09,24,01,58,12.10
2009,09,24,01,59,12.00
2009,09,24,02,00,12.00
2009,09,24,02,01,12.00
2009,09,24,02,02,12.00
2009,09,24,02,03,12.00
2009,09,24,02,04,12.00
2009,09,24,02,05,12.00
2009,09,24,02,06,12.00
2009,09,24,02,07,11.90
2009,09,24,02,08,11.90
2009,09,24,02,09,11.90
2009,09,24,02,10,11.90
2009,09,24,02,11,11.90
2009,09,24,02,12,11.90
2009,09,24,02,13,11.90
2009,09,24,02,14,11.90
2009,09,24,02,15,11.90
2009,09,24,02,16,11.80
2009,09,24,02,17,11.80
2009,09,24,02,18,11.80
2009,09,24,02,19,11.80
2009,09,24,02,20,11.80
2009,09,24,02,21,11.80
2009,09,24,02,22,11.80
2009,09,24,02,23,11.80
2009,09,24,02,24,11.80
2009,09,24,02,25,11.80
2009,09,24,02,26,11.80
2009,09,24,02,27,11.80
2009,09,24,02,28,11.80
2009,09,24,02,29,11.80
2009,09,24,02,30,11.70
2009,09,24,02,31,11.70
2009,09,24,02,32,11.70
2009,09,24,02,33,11.70
2009,09,24,02,34,11.70
2009,09,24,02,35,11.70
2009,09,24,02,36,11.70
2009,09,24,02,37,11.70
2009,09,24,02,38,11.70
2009,09,24,02,39,11.70
2009,09,24,02,40,11.60
2009,09,24,02,41,11.60
2009,09,24,02,42,11.60
2009,09,24,02,43,11.60
2009,09,24,02,44,11.60
2009,09,24,02,45,11.60
2009,09,24,02,46,11.60
2009,09,24,02,47,11.60
2009,09,24,02,48,11.60
2009,09,24,02,49,11.60
2009,09,24,02,50,11.60
2009,09,24,02,51,11.60
2009,09,24,02,52,11.60
2009,09,24,02,53,11.60
2009,09,24,02,54,11.60
2009,09,24,02,55,11.60
2009,09,24,02,56,11.60
2009,09,24,02,57,11.60
2009,09,24,02,58,11.60
2009,09,24,02,59,11.60
2009,09,24,03,00,11.60
2009,09,24,03,01,11.60
2009,09,24,03,02,11.60
2009,09,24,03,03,11.60
2009,09,24,03,04,11.60
2009,09,24,03,05,11.60
2009,09,24,03,06,11.60
2009,09,24,03,07,11.60
2009,09,24,03,08,11.60
2009,09,24,03,09,11.60
2009,09,24,03,10,11.60
2009,09,24,03,11,11.60
2009,09,24,03,12,11.60
2009,09,24,03,13,11.60
2009,09,24,03,14,11.60
2009,09,24,03,15,11.60
2009,09,24,03,16,11.60
2009,09,24,03,17,11.60
2009,09,24,03,18,11.60
2009,09,24,03,19,11.60
2009,09,24,03,20,11.60
2009,09,24,03,21,11.60
2009,09,24,03,22,11.60
2009,09,24,03,23,11.60
2009,09,24,03,24,11.50
2009,09,24,03,25,11.50
2009,09,24,03,26,11.50
2009,09,24,03,27,11.60
2009,09,24,03,28,11.60
2009,09,24,03,29,11.60
2009,09,24,03,30,11.60
2009,09,24,03,31,11.60
2009,09,24,03,32,11.50
2009,09,24,03,33,11.40
2009,09,24,03,34,11.40
2009,09,24,03,35,11.40
2009,09,24,03,36,11.40
2009,09,24,03,37,11.40
2009,09,24,03,38,11.40
2009,09,24,03,39,11.40
2009,09,24,03,40,11.40
2009,09,24,03,41,11.40
2009,09,24,03,42,11.40
2009,09,24,03,43,11.40
2009,09,24,03,44,11.40
2009,09,24,03,45,11.40
2009,09,24,03,46,11.40
2009,09,24,03,47,11.40
2009,09,24,03,48,11.40
2009,09,24,03,49,11.40
2009,09,24,03,50,11.40
2009,09,24,03,51,11.40
2009,09,24,03,52,11.40
2009,09,24,03,53,11.40
2009,09,24,03,54,11.40
2009,09,24,03,55,11.40
2009,09,24,03,56,11.40
2009,09,24,03,57,11.40
2009,09,24,03,58,11.40
2009,09,24,03,59,11.40
2009,09,24,04,00,11.40
2009,09,24,04,01,11.40
2009,09,24,04,02,11.40
2009,09,24,04,03,11.40
2009,09,24,04,04,11.40
2009,09,24,04,05,11.40
2009,09,24,04,06,11.40
2009,09,24,04,07,11.40
2009,09,24,04,08,11.40
2009,09,24,04,09,11.40
2009,09,24,04,10,11.40
2009,09,24,04,11,11.40
2009,09,24,04,12,11.40
2009,09,24,04,13,11.40
2009,09,24,04,14,11.40
2009,09,24,04,15,11.40
2009,09,24,04,16,11.40
2009,09,24,04,17,11.40
2009,09,24,04,18,11.30
2009,09,24,04,19,11.30
2009,09,24,04,20,11.30
2009,09,24,04,21,11.30
2009,09,24,04,22,11.30
2009,09,24,04,23,11.30
2009,09,24,04,24,11.30
2009,09,24,04,25,11.30
2009,09,24,04,26,11.30
2009,09,24,04,27,11.30
2009,09,24,04,28,11.30
2009,09,24,04,29,11.20
2009,09,24,04,30,11.20
2009,09,24,04,31,11.20
2009,09,24,04,32,11.20
2009,09,24,04,33,11.20
2009,09,24,04,34,11.20
2009,09,24,04,35,11.20
2009,09,24,04,36,11.20
2009,09,24,04,37,11.20
2009,09,24,04,38,11.10
2009,09,24,04,39,11.10
2009,09,24,04,40,11.10
2009,09,24,04,41,11.10
2009,09,24,04,42,11.10
2009,09,24,04,43,11.10
2009,09,24,04,44,11.10
2009,09,24,04,45,11.10
2009,09,24,04,46,11.10
2009,09,24,04,47,11.10
2009,09,24,04,48,11.10
2009,09,24,04,49,11.00
2009,09,24,04,50,10.90
2009,09,24,04,51,10.90
2009,09,24,04,52,10.90
2009,09,24,04,53,10.90
2009,09,24,04,54,10.90
2009,09,24,04,55,10.90
2009,09,24,04,56,10.90
2009,09,24,04,57,10.90
2009,09,24,04,58,10.90
2009,09,24,04,59,10.90
2009,09,24,05,00,10.90
2009,09,24,05,01,10.90
2009,09,24,05,02,10.90
2009,09,24,05,03,10.90
2009,09,24,05,04,10.90
2009,09,24,05,05,10.90
2009,09,24,05,06,10.90
2009,09,24,05,07,10.90
2009,09,24,05,08,10.80
2009,09,24,05,09,10.80
2009,09,24,05,10,10.80
2009,09,24,05,11,10.80
2009,09,24,05,12,10.80
2009,09,24,05,13,10.80
2009,09,24,05,14,10.80
2009,09,24,05,15,10.80
2009,09,24,05,16,10.80
2009,09,24,05,17,10.80
2009,09,24,05,18,10.80
2009,09,24,05,19,10.80
2009,09,24,05,20,10.80
2009,09,24,05,21,10.80
2009,09,24,05,22,10.80
2009,09,24,05,23,10.80
2009,09,24,05,24,10.80
2009,09,24,05,25,10.80
2009,09,24,05,26,10.80
2009,09,24,05,27,10.80
2009,09,24,05,28,10.80
2009,09,24,05,29,10.80
2009,09,24,05,30,10.80
2009,09,24,05,31,10.80
2009,09,24,05,32,10.80
2009,09,24,05,33,10.80
2009,09,24,05,34,10.80
2009,09,24,05,35,10.80
2009,09,24,05,36,10.80
2009,09,24,05,37,10.80
2009,09,24,05,38,10.80
2009,09,24,05,39,10.80
2009,09,24,05,40,10.80
2009,09,24,05,41,10.80
2009,09,24,05,42,10.80
2009,09,24,05,43,10.80
2009,09,24,05,44,10.80
2009,09,24,05,45,10.80
2009,09,24,05,46,10.80
2009,09,24,05,47,10.80
2009,09,24,05,48,10.80
2009,09,24,05,49,10.80
2009,09,24,05,50,10.80
2009,09,24,05,51,10.80
2009,09,24,05,52,10.80
2009,09,24,05,53,10.80
2009,09,24,05,54,10.80
2009,09,24,05,55,10.80
2009,09,24,05,56,10.80
2009,09,24,05,57,10.80
2009,09,24,05,58,10.80
2009,09,24,05,59,10.80
2009,09,24,06,00,10.80
2009,09,24,06,01,10.80
2009,09,24,06,02,10.80
2009,09,24,06,03,10.80
2009,09,24,06,04,10.80
2009,09,24,06,05,10.80
2009,09,24,06,06,10.80
2009,09,24,06,07,10.80
2009,09,24,06,08,10.80
2009,09,24,06,09,10.70
2009,09,24,06,10,10.70
2009,09,24,06,11,10.70
2009,09,24,06,12,10.70
2009,09,24,06,13,10.70
2009,09,24,06,14,10.70
2009,09,24,06,15,10.70
2009,09,24,06,16,10.70
2009,09,24,06,17,10.70
2009,09,24,06,18,10.70
2009,09,24,06,19,10.70
2009,09,24,06,20,10.70
2009,09,24,06,21,10.60
2009,09,24,06,22,10.60
2009,09,24,06,23,10.60
2009,09,24,06,24,10.60
2009,09,24,06,25,10.60
2009,09,24,06,26,10.60
2009,09,24,06,27,10.60
2009,09,24,06,28,10.60
2009,09,24,06,29,10.60
2009,09,24,06,30,10.60
2009,09,24,06,31,10.60
2009,09,24,06,32,10.60
2009,09,24,06,33,10.60
2009,09,24,06,34,10.60
2009,09,24,06,35,10.60
2009,09,24,06,36,10.60
2009,09,24,06,37,10.60
2009,09,24,06,38,10.60
2009,09,24,06,39,10.60
2009,09,24,06,40,10.60
2009,09,24,06,41,10.60
2009,09,24,06,42,10.60
2009,09,24,06,43,10.60
2009,09,24,06,44,10.60
2009,09,24,06,45,10.60
2009,09,24,06,46,10.60
2009,09,24,06,47,10.60
2009,09,24,06,48,10.60
2009,09,24,06,49,10.60
2009,09,24,06,50,10.60
2009,09,24,06,51,10.60
2009,09,24,06,52,10.60
2009,09,24,06,53,10.60
2009,09,24,06,54,10.60
2009,09,24,06,55,10.50
2009,09,24,06,56,10.40
2009,09,24,06,57,10.40
2009,09,24,06,58,10.40
2009,09,24,06,59,10.40
2009,09,24,07,00,10.40
2009,09,24,07,01,10.40
2009,09,24,07,02,10.40
2009,09,24,07,03,10.40
2009,09,24,07,04,10.40
2009,09,24,07,05,10.40
2009,09,24,07,06,10.40
2009,09,24,07,07,10.40
2009,09,24,07,08,10.40
2009,09,24,07,09,10.40
2009,09,24,07,10,10.40
2009,09,24,07,11,10.40
2009,09,24,07,12,10.40
2009,09,24,07,13,10.40
2009,09,24,07,14,10.40
2009,09,24,07,15,10.40
2009,09,24,07,16,10.40
2009,09,24,07,17,10.40
2009,09,24,07,18,10.40
2009,09,24,07,19,10.40
2009,09,24,07,20,10.40
2009,09,24,07,21,10.40
2009,09,24,07,22,10.40
2009,09,24,07,23,10.40
2009,09,24,07,24,10.40
2009,09,24,07,25,10.40
2009,09,24,07,26,10.40
2009,09,24,07,27,10.30
2009,09,24,07,28,10.30
2009,09,24,07,29,10.30
2009,09,24,07,30,10.30
2009,09,24,07,31,10.30
2009,09,24,07,32,10.30
2009,09,24,07,33,10.30
2009,09,24,07,34,10.30
2009,09,24,07,35,10.30
2009,09,24,07,36,10.30
2009,09,24,07,37,10.30
2009,09,24,07,38,10.30
2009,09,24,07,39,10.30
2009,09,24,07,40,10.30
2009,09,24,07,41,10.30
2009,09,24,07,42,10.40
2009,09,24,07,43,10.40
2009,09,24,07,44,10.40
2009,09,24,07,45,10.40
2009,09,24,07,46,10.40
2009,09,24,07,47,10.40
2009,09,24,07,48,10.40
2009,09,24,07,49,10.40
2009,09,24,07,50,10.40
2009,09,24,07,51,10.40
2009,09,24,07,52,10.40
2009,09,24,07,53,10.40
2009,09,24,07,54,10.40
2009,09,24,07,55,10.40
2009,09,24,07,56,10.40
2009,09,24,07,57,10.40
2009,09,24,07,58,10.40
2009,09,24,07,59,10.40
2009,09,24,08,00,10.50
2009,09,24,08,01,10.60
2009,09,24,08,02,10.60
2009,09,24,08,03,10.60
2009,09,24,08,04,10.60
2009,09,24,08,05,10.60
2009,09,24,08,06,10.60
2009,09,24,08,07,10.60
2009,09,24,08,08,10.60
2009,09,24,08,09,10.60
2009,09,24,08,10,10.60
2009,09,24,08,11,10.60
2009,09,24,08,12,10.60
2009,09,24,08,13,10.60
2009,09,24,08,14,10.60
2009,09,24,08,15,10.60
2009,09,24,08,16,10.60
2009,09,24,08,17,10.70
2009,09,24,08,18,10.70
2009,09,24,08,19,10.80
2009,09,24,08,20,10.80
2009,09,24,08,21,10.90
2009,09,24,08,22,10.90
2009,09,24,08,23,10.90
2009,09,24,08,24,10.90
2009,09,24,08,25,11.00
2009,09,24,08,26,11.10
2009,09,24,08,27,11.10
2009,09,24,08,28,11.10
2009,09,24,08,29,11.10
2009,09,24,08,30,11.20
2009,09,24,08,31,11.20
2009,09,24,08,32,11.30
2009,09,24,08,33,11.40
2009,09,24,08,34,11.40
2009,09,24,08,35,11.50
2009,09,24,08,36,11.60
2009,09,24,08,37,11.70
2009,09,24,08,38,11.80
2009,09,24,08,39,11.90
2009,09,24,08,40,12.00
2009,09,24,08,41,12.10
2009,09,24,08,42,12.20
2009,09,24,08,43,12.30
2009,09,24,08,44,12.40
2009,09,24,08,45,12.50
2009,09,24,08,46,12.60
2009,09,24,08,47,12.70
2009,09,24,08,48,12.80
2009,09,24,08,49,13.00
2009,09,24,08,50,13.10
2009,09,24,08,51,13.30
2009,09,24,08,52,13.40
2009,09,24,08,53,13.50
2009,09,24,08,54,13.60
2009,09,24,08,55,13.70
2009,09,24,08,56,13.80
2009,09,24,08,57,13.90
2009,09,24,08,58,14.00
2009,09,24,08,59,14.00
2009,09,24,09,00,14.10
2009,09,24,09,01,14.20
2009,09,24,09,02,14.20
2009,09,24,09,03,14.20
2009,09,24,09,04,14.20
2009,09,24,09,05,14.20
2009,09,24,09,06,14.20
2009,09,24,09,07,14.20
2009,09,24,09,08,14.20
2009,09,24,09,09,14.20
2009,09,24,09,10,14.20
2009,09,24,09,11,14.20
2009,09,24,09,12,14.20
2009,09,24,09,13,14.10
2009,09,24,09,14,14.00
2009,09,24,09,15,13.90
2009,09,24,09,16,13.90
2009,09,24,09,17,13.90
2009,09,24,09,18,14.00
2009,09,24,09,19,14.00
2009,09,24,09,20,14.10
2009,09,24,09,21,14.20
2009,09,24,09,22,14.40
2009,09,24,09,23,14.50
2009,09,24,09,24,14.60
2009,09,24,09,25,14.60
2009,09,24,09,26,14.70
2009,09,24,09,27,14.80
2009,09,24,09,28,14.80
2009,09,24,09,29,14.90
2009,09,24,09,30,15.00
2009,09,24,09,31,15.10
2009,09,24,09,32,15.10
2009,09,24,09,33,15.10
2009,09,24,09,34,15.20
2009,09,24,09,35,15.20
2009,09,24,09,36,15.10
2009,09,24,09,37,15.10
2009,09,24,09,38,15.10
2009,09,24,09,39,15.10
2009,09,24,09,40,15.10
2009,09,24,09,41,15.20
2009,09,24,09,42,15.20
2009,09,24,09,43,15.20
2009,09,24,09,44,15.20
2009,09,24,09,45,15.20
2009,09,24,09,46,15.20
2009,09,24,09,47,15.20
2009,09,24,09,48,15.30
2009,09,24,09,49,15.30
2009,09,24,09,50,15.30
2009,09,24,09,51,15.30
2009,09,24,09,52,15.30
2009,09,24,09,53,15.30
2009,09,24,09,54,15.30
2009,09,24,09,55,15.20
2009,09,24,09,56,15.20
2009,09,24,09,57,15.10
2009,09,24,09,58,14.90
2009,09,24,09,59,14.80
2009,09,24,10,00,14.80
2009,09,24,10,01,14.70
2009,09,24,10,02,14.80
2009,09,24,10,03,14.80
2009,09,24,10,04,14.80
2009,09,24,10,05,14.80
2009,09,24,10,06,14.80
2009,09,24,10,07,14.70
2009,09,24,10,08,14.60
2009,09,24,10,09,14.60
2009,09,24,10,10,14.50
2009,09,24,10,11,14.50
2009,09,24,10,12,14.50
2009,09,24,10,13,14.50
2009,09,24,10,14,14.50
2009,09,24,10,15,14.50
2009,09,24,10,16,14.50
2009,09,24,10,17,14.50
2009,09,24,10,18,14.50
2009,09,24,10,19,14.50
2009,09,24,10,20,14.50
2009,09,24,10,21,14.60
2009,09,24,10,22,14.60
2009,09,24,10,23,14.60
2009,09,24,10,24,14.60
2009,09,24,10,25,14.70
2009,09,24,10,26,14.70
2009,09,24,10,27,14.70
2009,09,24,10,28,14.60
2009,09,24,10,29,14.70
2009,09,24,10,30,14.70
2009,09,24,10,31,14.70
2009,09,24,10,32,14.70
2009,09,24,10,33,14.80
2009,09,24,10,34,14.80
2009,09,24,10,35,14.80
2009,09,24,10,36,14.80
2009,09,24,10,37,14.80
2009,09,24,10,38,14.80
2009,09,24,10,39,14.90
2009,09,24,10,40,15.00
2009,09,24,10,41,15.10
2009,09,24,10,42,15.20
2009,09,24,10,43,15.40
2009,09,24,10,44,15.50
2009,09,24,10,45,15.60
2009,09,24,10,46,15.60
2009,09,24,10,47,15.50
2009,09,24,10,48,15.50
2009,09,24,10,49,15.50
2009,09,24,10,50,15.40
2009,09,24,10,51,15.40
2009,09,24,10,52,15.30
2009,09,24,10,53,15.30
2009,09,24,10,54,15.40
2009,09,24,10,55,15.40
2009,09,24,10,56,15.50
2009,09,24,10,57,15.60
2009,09,24,10,58,15.60
2009,09,24,10,59,15.70
2009,09,24,11,00,15.80
2009,09,24,11,01,15.80
2009,09,24,11,02,15.80
2009,09,24,11,03,15.80
2009,09,24,11,04,15.90
2009,09,24,11,05,16.00
2009,09,24,11,06,16.10
2009,09,24,11,07,16.10
2009,09,24,11,08,16.10
2009,09,24,11,09,16.10
2009,09,24,11,10,16.10
2009,09,24,11,11,16.10
2009,09,24,11,12,16.10
2009,09,24,11,13,16.10
2009,09,24,11,14,16.10
2009,09,24,11,15,16.20
2009,09,24,11,16,16.30
2009,09,24,11,17,16.30
2009,09,24,11,18,16.30
2009,09,24,11,19,16.30
2009,09,24,11,20,16.30
2009,09,24,11,21,16.30
2009,09,24,11,22,16.30
2009,09,24,11,23,16.30
2009,09,24,11,24,16.40
2009,09,24,11,25,16.40
2009,09,24,11,26,16.40
2009,09,24,11,27,16.40
2009,09,24,11,28,16.40
2009,09,24,11,29,16.40
2009,09,24,11,30,16.60
2009,09,24,11,31,16.80
2009,09,24,11,32,16.90
2009,09,24,11,33,17.00
2009,09,24,11,34,17.00
2009,09,24,11,35,17.00
2009,09,24,11,36,17.20
2009,09,24,11,37,17.30
2009,09,24,11,38,17.40
2009,09,24,11,39,17.50
2009,09,24,11,40,17.70
2009,09,24,11,41,17.80
2009,09,24,11,42,17.90
2009,09,24,11,43,17.90
2009,09,24,11,44,18.00
2009,09,24,11,45,18.10
2009,09,24,11,46,18.20
2009,09,24,11,47,18.20
2009,09,24,11,48,18.10
2009,09,24,11,49,18.10
2009,09,24,11,50,18.10
2009,09,24,11,51,18.00
2009,09,24,11,52,17.90
2009,09,24,11,53,17.90
2009,09,24,11,54,17.90
2009,09,24,11,55,17.90
2009,09,24,11,56,17.90
2009,09,24,11,57,18.00
2009,09,24,11,58,17.90
2009,09,24,11,59,17.90
2009,09,24,12,00,17.80
2009,09,24,12,01,17.80
2009,09,24,12,02,17.70
2009,09,24,12,03,17.70
2009,09,24,12,04,17.60
2009,09,24,12,05,17.60
2009,09,24,12,06,17.50
2009,09,24,12,07,17.50
2009,09,24,12,08,17.40
2009,09,24,12,09,17.30
2009,09,24,12,10,17.30
2009,09,24,12,11,17.30
2009,09,24,12,12,17.30
2009,09,24,12,13,17.30
2009,09,24,12,14,17.10
2009,09,24,12,15,17.00
2009,09,24,12,16,17.00
2009,09,24,12,17,16.90
2009,09,24,12,18,16.80
2009,09,24,12,19,16.70
2009,09,24,12,20,16.80
2009,09,24,12,21,16.70
2009,09,24,12,22,16.70
2009,09,24,12,23,16.70
2009,09,24,12,24,16.90
2009,09,24,12,25,17.00
2009,09,24,12,26,17.20
2009,09,24,12,27,17.30
2009,09,24,12,28,17.40
2009,09,24,12,29,17.60
2009,09,24,12,30,17.70
2009,09,24,12,31,17.80
2009,09,24,12,32,17.80
2009,09,24,12,33,17.70
2009,09,24,12,34,17.50
2009,09,24,12,35,17.40
2009,09,24,12,36,17.30
2009,09,24,12,37,17.30
2009,09,24,12,38,17.20
2009,09,24,12,39,17.20
2009,09,24,12,40,17.30
2009,09,24,12,41,17.50
2009,09,24,12,42,17.60
2009,09,24,12,43,17.60
2009,09,24,12,44,17.70
2009,09,24,12,45,17.70
2009,09,24,12,46,17.70
2009,09,24,12,47,17.70
2009,09,24,12,48,17.70
2009,09,24,12,49,17.70
2009,09,24,12,50,17.60
2009,09,24,12,51,17.50
2009,09,24,12,52,17.50
2009,09,24,12,53,17.40
2009,09,24,12,54,17.30
2009,09,24,12,55,17.20
2009,09,24,12,56,17.20
2009,09,24,12,57,17.30
2009,09,24,12,58,17.40
2009,09,24,12,59,17.50
2009,09,24,13,00,17.50
2009,09,24,13,01,17.60
2009,09,24,13,02,17.60
2009,09,24,13,03,17.60
2009,09,24,13,04,17.60
2009,09,24,13,05,17.60
2009,09,24,13,06,17.60
2009,09,24,13,07,17.60
2009,09,24,13,08,17.60
2009,09,24,13,09,17.60
2009,09,24,13,10,17.50
2009,09,24,13,11,17.50
2009,09,24,13,12,17.50
2009,09,24,13,13,17.50
2009,09,24,13,14,17.50
2009,09,24,13,15,17.50
2009,09,24,13,16,17.50
2009,09,24,13,17,17.70
2009,09,24,13,18,17.80
2009,09,24,13,19,17.90
2009,09,24,13,20,17.90
2009,09,24,13,21,17.90
2009,09,24,13,22,17.90
2009,09,24,13,23,17.90
2009,09,24,13,24,18.00
2009,09,24,13,25,18.10
2009,09,24,13,26,18.30
2009,09,24,13,27,18.50
2009,09,24,13,28,18.50
2009,09,24,13,29,18.60
2009,09,24,13,30,18.70
2009,09,24,13,31,18.80
2009,09,24,13,32,18.80
2009,09,24,13,33,18.80
2009,09,24,13,34,18.80
2009,09,24,13,35,18.80
2009,09,24,13,36,18.70
2009,09,24,13,37,18.70
2009,09,24,13,38,18.80
2009,09,24,13,39,18.80
2009,09,24,13,40,18.90
2009,09,24,13,41,18.90
2009,09,24,13,42,18.90
2009,09,24,13,43,18.90
2009,09,24,13,44,18.80
2009,09,24,13,45,18.70
2009,09,24,13,46,18.60
2009,09,24,13,47,18.50
2009,09,24,13,48,18.50
2009,09,24,13,49,18.50
2009,09,24,13,50,18.50
2009,09,24,13,51,18.60
2009,09,24,13,52,18.60
2009,09,24,13,53,18.70
2009,09,24,13,54,18.60
2009,09,24,13,55,18.50
2009,09,24,13,56,18.50
2009,09,24,13,57,18.50
2009,09,24,13,58,18.50
2009,09,24,13,59,18.40
2009,09,24,14,00,18.50
2009,09,24,14,01,18.60
2009,09,24,14,02,18.70
2009,09,24,14,03,18.80
2009,09,24,14,04,18.80
2009,09,24,14,05,18.80
2009,09,24,14,06,18.80
2009,09,24,14,07,18.70
2009,09,24,14,08,18.60
2009,09,24,14,09,18.60
2009,09,24,14,10,18.50
2009,09,24,14,11,18.40
2009,09,24,14,12,18.40
2009,09,24,14,13,18.40
2009,09,24,14,14,18.40
2009,09,24,14,15,18.50
2009,09,24,14,16,18.60
2009,09,24,14,17,18.50
2009,09,24,14,18,18.50
2009,09,24,14,19,18.50
2009,09,24,14,20,18.60
2009,09,24,14,21,18.70
2009,09,24,14,22,18.70
2009,09,24,14,23,18.70
2009,09,24,14,24,18.70
2009,09,24,14,25,18.80
2009,09,24,14,26,18.70
2009,09,24,14,27,18.70
2009,09,24,14,28,18.70
2009,09,24,14,29,18.80
2009,09,24,14,30,18.90
2009,09,24,14,31,18.80
2009,09,24,14,32,18.70
2009,09,24,14,33,18.70
2009,09,24,14,34,18.70
2009,09,24,14,35,18.70
2009,09,24,14,36,18.70
2009,09,24,14,37,18.70
2009,09,24,14,38,18.80
2009,09,24,14,39,18.80
2009,09,24,14,40,18.80
2009,09,24,14,41,18.70
2009,09,24,14,42,18.70
2009,09,24,14,43,18.70
2009,09,24,14,44,18.80
2009,09,24,14,45,18.80
2009,09,24,14,46,18.70
2009,09,24,14,47,18.70
2009,09,24,14,48,18.80
2009,09,24,14,49,18.90
2009,09,24,14,50,18.90
2009,09,24,14,51,19.00
2009,09,24,14,52,19.10
2009,09,24,14,53,19.10
2009,09,24,14,54,19.10
2009,09,24,14,55,19.10
2009,09,24,14,56,19.10
2009,09,24,14,57,19.10
2009,09,24,14,58,19.30
2009,09,24,14,59,19.40
2009,09,24,15,00,19.50
2009,09,24,15,01,19.50
2009,09,24,15,02,19.60
2009,09,24,15,03,19.60
2009,09,24,15,04,19.60
2009,09,24,15,05,19.60
2009,09,24,15,06,19.60
2009,09,24,15,07,19.60
2009,09,24,15,08,19.50
2009,09,24,15,09,19.50
2009,09,24,15,10,19.50
2009,09,24,15,11,19.50
2009,09,24,15,12,19.50
2009,09,24,15,13,19.50
2009,09,24,15,14,19.50
2009,09,24,15,15,19.50
2009,09,24,15,16,19.60
2009,09,24,15,17,19.60
2009,09,24,15,18,19.70
2009,09,24,15,19,19.70
2009,09,24,15,20,19.80
2009,09,24,15,21,19.90
2009,09,24,15,22,19.90
2009,09,24,15,23,20.00
2009,09,24,15,24,20.10
2009,09,24,15,25,20.00
2009,09,24,15,26,19.90
2009,09,24,15,27,19.90
2009,09,24,15,28,19.90
2009,09,24,15,29,19.90
2009,09,24,15,30,19.90
2009,09,24,15,31,19.90
2009,09,24,15,32,19.90
2009,09,24,15,33,19.90
2009,09,24,15,34,19.90
2009,09,24,15,35,19.80
2009,09,24,15,36,19.60
2009,09,24,15,37,19.60
2009,09,24,15,38,19.60
2009,09,24,15,39,19.60
2009,09,24,15,40,19.70
2009,09,24,15,41,19.70
2009,09,24,15,42,19.60
2009,09,24,15,43,19.60
2009,09,24,15,44,19.60
2009,09,24,15,45,19.60
2009,09,24,15,46,19.70
2009,09,24,15,47,19.80
2009,09,24,15,48,19.90
2009,09,24,15,49,19.90
2009,09,24,15,50,19.90
2009,09,24,15,51,19.90
2009,09,24,15,52,19.90
2009,09,24,15,53,19.80
2009,09,24,15,54,19.80
2009,09,24,15,55,19.70
2009,09,24,15,56,19.60
2009,09,24,15,57,19.50
2009,09,24,15,58,19.50
2009,09,24,15,59,19.50
2009,09,24,16,00,19.60
2009,09,24,16,01,19.60
2009,09,24,16,02,19.60
2009,09,24,16,03,19.60
2009,09,24,16,04,19.60
2009,09,24,16,05,19.50
2009,09,24,16,06,19.40
2009,09,24,16,07,19.40
2009,09,24,16,08,19.30
2009,09,24,16,09,19.30
2009,09,24,16,10,19.10
2009,09,24,16,11,19.00
2009,09,24,16,12,18.90
2009,09,24,16,13,18.80
2009,09,24,16,14,18.70
2009,09,24,16,15,18.80
2009,09,24,16,16,18.90
2009,09,24,16,17,19.00
2009,09,24,16,18,19.10
2009,09,24,16,19,19.30
2009,09,24,16,20,19.40
2009,09,24,16,21,19.40
2009,09,24,16,22,19.50
2009,09,24,16,23,19.50
2009,09,24,16,24,19.50
2009,09,24,16,25,19.40
2009,09,24,16,26,19.30
2009,09,24,16,27,19.10
2009,09,24,16,28,19.00
2009,09,24,16,29,18.90
2009,09,24,16,30,18.70
2009,09,24,16,31,18.70
2009,09,24,16,32,18.70
2009,09,24,16,33,18.70
2009,09,24,16,34,18.80
2009,09,24,16,35,18.90
2009,09,24,16,36,19.10
2009,09,24,16,37,19.20
2009,09,24,16,38,19.20
2009,09,24,16,39,19.10
2009,09,24,16,40,19.10
2009,09,24,16,41,19.10
2009,09,24,16,42,18.90
2009,09,24,16,43,18.90
2009,09,24,16,44,18.90
2009,09,24,16,45,18.90
2009,09,24,16,46,18.90
2009,09,24,16,47,18.90
2009,09,24,16,48,18.90
2009,09,24,16,49,18.90
2009,09,24,16,50,18.80
2009,09,24,16,51,18.70
2009,09,24,16,52,18.70
2009,09,24,16,53,18.70
2009,09,24,16,54,18.60
2009,09,24,16,55,18.60
2009,09,24,16,56,18.60
2009,09,24,16,57,18.60
2009,09,24,16,58,18.50
2009,09,24,16,59,18.50
2009,09,24,17,00,18.50
2009,09,24,17,01,18.50
2009,09,24,17,02,18.40
2009,09,24,17,03,18.50
2009,09,24,17,04,18.50
2009,09,24,17,05,18.40
2009,09,24,17,06,18.30
2009,09,24,17,07,18.20
2009,09,24,17,08,18.10
2009,09,24,17,09,17.90
2009,09,24,17,10,17.90
2009,09,24,17,11,17.90
2009,09,24,17,12,17.80
2009,09,24,17,13,17.80
2009,09,24,17,14,17.70
2009,09,24,17,15,17.60
2009,09,24,17,16,17.50
2009,09,24,17,17,17.40
2009,09,24,17,18,17.40
2009,09,24,17,19,17.50
2009,09,24,17,20,17.60
2009,09,24,17,21,17.70
2009,09,24,17,22,17.80